Temperature
18 18 18 19 19 19 17 17 18 20 20 21 22 22 22 22 22 22 21 22 21 21 20 20 19 19 20 20 20 19 18 17 16 16 15 15 15 15 14 13 14 14 14 14
18 19 19 18 19 19 19 18 18 18 19 20 19 19 20 20 21 21 21 21 21 20 20 19 19 19 19 19 20 19 18 17 16 16 16 15 15 15 14 14 13 13 14 14
17 18 17 16 15 15 17 17 17 17 17 18 19 20 20 20 21 21 21 20 19 19 18 18 18 18 19 18 17 17 16 16 15 16 16 16 16 16 15 15 14 13 13 14
17 16 15 15 14 14 16 16 16 17 17 17 18 19 18 18 19 20 19 18 18 17 17 17 17 18 19 18 18 17 16 16 15 15 14 15 16 16 15 14 14 15 14 14
16 15 16 14 10 10 13 15 16 16 16 16 18 21 20 16 16 16 16 16 16 16 17 17 17 17 17 17 16 16 16 15 15 14 14 14 15 16 15 14 15 15 15 14
14 12 12 10 9 10 15 14 15 15 16 15 17 20 19 15 15 14 15 15 15 15 16 16 16 16 16 16 15 14 14 14 14 15 14 13 13 13 15 15 15 14 14 14
11 10 11 8 8 12 12 11 13 14 15 15 16 16 16 15 14 14 15 15 15 15 15 15 15 14 14 13 13 13 13 12 12 13 13 13 13 13 14 14 13 13 13 14
10 10 8 8 7 8 8 8 12 13 14 14 15 15 15 15 14 14 15 15 14 14 15 14 14 14 13 12 12 12 11 11 11 12 12 12 12 12 12 12 12 12 12 12
11 11 10 8 7 7 7 7 11 12 13 14 14 15 15 15 14 15 15 14 14 14 13 13 13 13 13 12 12 11 11 11 10 10 11 11 11 10 10 11 11 11 11 11
10 11 10 9 8 7 7 8 10 12 13 14 14 15 15 15 15 15 15 14 14 13 13 13 13 13 12 12 12 11 11 11 10 10 10 10 9 10 10 10 11 11 11 11
12 11 9 10 8 7 7 9 10 11 12 13 14 15 15 15 15 15 15 15 14 14 13 13 13 13 13 13 12 12 11 11 11 11 10 10 10 10 10 10 10 11 11 11
9 9 7 8 8 7 7 9 9 10 11 13 14 14 15 15 15 15 14 15 14 13 13 13 13 13 13 13 12 12 12 11 10 10 10 11 10 10 11 11 11 11 11 11
8 8 7 8 8 8 7 9 9 10 11 13 14 14 14 15 14 15 15 15 14 14 14 14 14 14 14 13 12 12 11 11 11 10 10 10 10 10 10 10 10 10 10 10
8 8 9 9 9 8 8 9 9 11 12 13 14 14 14 14 15 15 15 16 15 15 14 14 14 14 14 13 12 12 11 11 10 10 10 10 10 10 10 10 10 10 10 10
10 9 8 8 9 9 9 9 9 11 12 13 13 14 14 14 15 15 15 16 16 15 14 14 15 14 14 13 12 11 11 11 10 10 10 10 10 10 10 10 10 9 9 9
10 10 9 9 9 9 9 9 9 10 11 12 13 13 14 14 15 15 16 17 17 16 15 15 15 15 14 13 12 11 11 11 11 10 10 10 10 10 10 10 10 9 9 9
9 9 9 9 9 9 9 8 9 9 10 11 12 13 15 15 15 16 16 17 17 16 16 15 15 15 15 14 12 11 11 11 11 10 10 11 11 11 10 10 10 10 9 9
8 9 9 9 8 9 9 8 9 10 10 11 13 14 15 15 16 16 17 18 17 17 17 16 16 16 15 14 12 11 11 11 10 10 10 10 10 10 10 10 9 9 9 9
8 8 9 9 8 8 9 9 9 10 10 12 14 15 15 16 17 18 19 18 17 17 17 17 17 16 15 14 12 11 11 10 10 10 10 10 10 10 10 10 10 9 9 9
8 8 8 9 8 8 9 10 10 10 10 12 14 16 15 16 17 19 19 19 18 18 18 18 17 16 15 14 13 11 11 10 10 10 10 10 10 10 10 10 10 10 9 9
8 8 8 9 9 9 9 10 10 10 10 11 14 16 17 17 18 19 19 19 18 18 18 18 17 16 15 14 12 11 11 10 10 10 10 10 10 10 10 10 10 10 10 10
8 8 8 8 9 9 9 10 11 11 10 11 14 16 17 18 19 19 19 19 18 18 18 18 18 16 15 14 12 11 10 10 11 11 10 10 10 10 9 9 9 9 9 9
8 8 8 8 8 9 9 9 11 12 11 11 14 16 17 18 19 19 19 18 19 18 18 18 18 16 15 13 11 11 10 10 10 10 10 10 10 10 9 9 9 9 9 9
8 8 8 8 8 9 9 9 11 12 11 11 13 15 16 18 18 18 19 19 19 18 18 18 18 16 15 13 11 11 10 10 10 10 10 10 10 9 9 9 9 9 8 8
8 8 8 8 8 8 9 9 10 11 11 11 12 14 15 16 17 18 18 18 18 18 18 18 17 16 14 13 11 10 10 9 9 10 9 9 9 9 9 9 8 8 8 8
8 7 8 8 8 8 8 9 9 10 11 11 13 14 15 16 17 18 18 18 18 18 17 17 17 15 14 12 11 10 10 9 9 9 9 9 9 9 9 9 8 8 7 8
8 8 8 8 8 8 8 8 9 10 11 11 13 14 15 16 17 18 18 18 17 17 17 17 16 15 13 13 11 10 9 9 9 9 9 9 8 8 8 8 8 8 8 8
Wind_Speed
11 11 14 17 19 12 14 15 14 14 17 19 20 21 22 21 19 15 15 12 9 9 8 7 9 12 12 11 11 11 10 10 9 8 8 9 9 9 10 9 9 8 7 7
15 11 13 17 15 11 7 8 9 14 17 20 22 21 21 19 16 13 12 9 7 7 5 2 6 9 10 11 11 11 11 10 9 8 8 10 11 12 11 11 11 10 9 9
12 11 14 5 11 14 12 14 12 14 19 22 21 17 12 10 10 9 7 6 5 5 7 5 5 6 7 6 4 3 9 9 8 9 10 11 12 13 13 12 11 11 12 11
9 4 2 6 13 9 3 14 19 21 21 22 22 11 10 8 7 6 4 3 6 9 10 9 8 7 5 5 7 6 5 4 6 8 10 11 12 13 14 13 12 13 13 13
3 4 4 6 12 15 13 8 22 25 25 26 25 6 14 15 9 7 8 9 10 10 11 11 11 10 9 9 9 7 4 1 2 5 8 10 11 13 13 13 12 13 12 11
5 4 2 11 25 27 15 2 24 27 27 27 25 15 16 16 10 10 10 10 9 9 10 11 10 10 9 9 9 8 7 6 5 3 2 6 9 10 10 11 11 10 9 8
6 4 2 14 26 22 4 10 24 25 23 23 18 16 15 9 6 7 7 7 7 8 9 9 8 9 9 9 9 8 7 6 6 6 5 3 2 3 4 6 6 6 6 7
5 4 4 13 15 10 10 19 24 24 23 22 20 18 12 5 3 4 5 6 5 7 8 8 7 7 9 9 7 6 5 6 6 6 5 3 2 2 3 5 6 6 5 5
5 5 6 4 6 12 14 19 23 24 23 22 20 17 12 4 1 2 4 4 5 6 6 6 6 5 6 6 6 5 5 5 4 4 4 3 3 5 6 5 5 4 4 4
5 5 10 12 8 13 16 18 23 23 21 20 19 17 12 5 3 3 3 3 4 4 3 4 4 4 4 3 3 5 5 5 4 4 4 5 3 3 5 4 3 2 2 3
8 11 16 11 17 18 19 22 24 21 20 19 17 16 11 6 4 4 4 5 5 3 1 1 2 3 3 2 2 4 4 4 5 5 5 5 4 3 3 4 5 3 2 2
7 10 9 15 16 14 17 22 23 23 21 17 15 15 12 6 4 5 6 6 6 5 4 3 2 3 2 1 1 2 2 4 3 3 4 5 4 3 8 8 8 7 7 6
7 10 11 15 14 14 18 21 21 18 16 16 14 13 11 6 4 5 6 7 7 7 6 5 3 2 1 3 2 1 2 2 1 1 2 3 2 2 2 3 5 9 10 9
10 12 11 12 15 17 18 18 19 17 12 12 12 11 10 7 4 7 7 8 8 7 7 7 4 2 2 4 3 2 2 1 0 0 2 2 2 2 1 2 2 4 7 8
11 12 12 16 18 17 17 16 16 14 13 12 11 11 10 9 7 8 9 8 8 8 9 8 6 3 4 5 4 3 2 1 0 1 1 2 2 1 2 4 3 2 3 4
14 13 13 14 17 20 20 19 17 16 15 15 14 13 12 11 10 8 10 11 10 11 10 8 7 4 5 6 5 4 2 2 1 1 2 1 0 1 4 4 3 3 4 4
13 16 16 16 17 19 19 17 17 16 16 16 15 14 13 12 9 8 10 11 11 11 9 7 6 4 7 7 6 4 4 4 3 2 1 1 1 2 5 3 2 4 6 6
10 12 15 14 14 16 18 17 16 17 16 15 14 14 13 11 8 5 8 10 11 11 10 8 6 6 8 8 7 5 5 5 5 3 3 2 1 2 4 4 3 4 5 3
10 12 14 14 13 14 15 16 16 17 16 14 13 13 13 11 8 5 5 8 11 12 10 10 10 10 10 9 7 6 6 5 5 4 4 3 2 2 3 3 4 5 4 3
11 12 13 15 14 13 13 15 17 17 17 15 14 13 12 9 7 5 4 7 9 8 7 10 12 11 11 10 8 7 6 5 4 4 4 4 3 4 5 3 3 4 4 5
12 13 14 14 15 15 13 13 14 16 17 15 13 13 12 11 8 7 5 6 6 7 8 12 11 11 11 11 10 8 7 6 4 3 5 5 4 4 5 4 3 3 4 3
11 12 13 14 14 15 15 13 14 16 17 16 14 13 12 11 9 7 7 5 3 8 9 9 10 12 13 13 10 9 8 7 5 4 4 5 4 4 5 4 4 5 4 3
12 12 13 13 14 14 15 14 13 15 16 17 15 13 12 11 9 8 6 2 5 8 9 9 13 17 17 12 10 9 9 8 6 5 5 4 5 5 4 4 4 5 4 3
12 12 13 13 13 13 13 15 14 14 16 15 14 13 11 10 8 5 4 2 4 8 8 11 19 20 16 10 10 9 9 8 6 4 4 3 4 4 5 5 5 4 4 4
12 12 12 12 12 11 12 13 14 13 14 13 13 11 9 7 7 7 6 2 6 8 8 14 22 20 13 10 10 9 9 8 7 5 5 5 5 4 5 5 5 4 4 3
12 11 10 11 11 11 10 10 10 11 12 13 13 12 11 9 8 7 5 2 6 8 9 12 15 14 11 10 10 10 9 8 8 6 6 5 6 6 6 5 5 3 4 4
12 10 9 9 10 10 10 9 10 11 12 13 14 14 12 10 7 5 4 4 6 9 10 12 13 12 11 11 11 10 10 9 8 7 7 6 6 6 6 5 4 4 4 4
Wind_Direction
299 286 289 293 293 273 241 258 278 305 310 305 305 301 291 283 283 286 283 289 294 294 292 263 223 211 205 204 195 194 193 201 204 211 211 214 206 206 210 213 215 219 223 213
296 307 311 310 331 339 263 258 300 319 315 324 314 299 285 279 278 284 282 288 304 316 324 262 202 193 190 200 202 198 202 207 201 205 208 217 214 209 212 214 225 223 233 227
301 327 321 320 40 15 51 45 6 344 337 331 328 325 314 277 276 291 301 327 343 26 47 80 127 166 188 193 143 228 229 205 200 207 210 215 219 218 216 215 217 215 220 228
282 327 293 91 38 345 24 31 10 359 354 348 339 345 24 353 314 310 345 43 87 89 85 81 76 72 67 98 139 165 235 215 210 219 220 215 218 221 217 210 205 208 213 214
298 273 228 94 13 337 312 21 14 358 355 355 345 2 39 19 19 41 69 81 84 85 84 77 70 68 68 65 72 79 74 56 231 222 221 216 217 222 220 214 208 207 214 216
305 319 311 6 344 327 298 319 2 355 353 354 354 6 3 6 32 58 68 75 80 81 78 72 64 61 62 58 53 50 45 46 47 35 282 246 234 227 221 218 218 216 213 214
346 319 352 1 346 333 359 324 334 343 346 349 350 341 332 351 28 47 59 64 68 76 76 73 70 69 66 57 46 35 31 38 45 40 26 2 305 261 218 218 209 204 198 202
350 344 335 355 354 352 314 307 317 332 336 341 342 340 341 348 19 39 58 70 78 85 85 77 71 72 71 61 46 36 31 33 37 38 26 25 62 105 146 147 140 143 157 179
327 325 346 335 321 313 319 309 316 324 325 332 338 339 332 318 27 56 69 88 96 96 92 86 71 58 64 58 36 28 32 32 31 47 52 56 96 121 120 117 125 147 172 176
323 334 343 318 334 322 314 308 314 316 318 327 333 334 325 281 211 158 125 120 125 125 119 91 69 46 41 43 24 25 34 30 30 42 31 72 87 111 111 101 121 154 180 194
319 347 337 340 334 326 321 320 316 316 316 318 327 332 330 288 226 176 160 160 162 177 184 100 49 21 11 6 358 23 40 43 45 46 57 77 91 54 50 64 33 27 45 23
311 324 320 307 318 327 321 317 315 308 303 309 321 330 330 298 230 195 180 171 179 198 219 241 289 335 352 184 265 358 39 52 42 42 75 88 98 81 44 41 50 45 43 31
296 300 297 297 314 321 312 320 319 310 300 304 316 326 328 309 221 198 188 185 195 208 225 246 268 326 101 163 192 12 52 67 71 10 59 99 146 168 135 89 68 55 49 41
306 310 308 311 320 321 319 323 320 310 306 309 315 322 325 314 235 205 200 192 197 215 230 243 258 291 174 186 199 186 107 85 265 331 308 287 252 261 328 40 79 70 52 41
327 331 319 312 319 328 331 330 324 321 327 322 320 319 319 313 275 223 202 189 197 222 234 240 249 249 199 199 210 204 191 160 139 81 325 283 254 278 55 78 89 120 118 75
331 335 339 338 335 334 338 340 332 329 329 316 311 311 316 310 289 241 204 191 201 223 233 237 243 232 197 199 205 207 176 125 240 173 171 168 227 71 86 105 128 118 102 114
333 338 341 341 336 332 336 336 328 325 318 307 303 305 306 303 287 236 213 204 210 229 237 235 231 200 188 196 202 201 182 166 195 201 124 51 14 87 112 124 109 93 90 75
326 328 330 332 332 329 332 336 333 329 317 308 302 299 296 294 293 258 222 211 213 224 228 223 208 183 184 192 196 193 190 183 186 189 162 140 86 122 127 130 130 105 94 97
320 325 329 333 333 327 328 334 333 329 326 320 311 300 293 290 291 277 229 218 219 222 220 207 175 182 180 180 184 183 178 180 189 182 171 142 138 129 115 106 115 117 129 118
319 323 325 329 331 325 327 333 330 331 336 327 313 302 289 282 282 287 252 236 236 226 196 169 167 179 171 168 189 176 161 159 187 184 165 160 141 121 101 100 114 130 127 118
316 320 320 325 328 325 328 331 328 331 336 330 316 307 298 291 286 287 273 258 240 201 174 160 169 168 164 166 185 172 156 157 163 154 153 152 143 128 121 131 129 107 92 92
312 315 314 317 324 326 325 328 331 332 334 332 327 320 311 302 296 288 269 262 223 171 173 169 170 161 156 163 175 167 160 154 150 168 161 152 148 152 148 145 134 118 109 97
305 308 309 311 316 319 320 324 329 332 330 332 334 329 317 306 295 288 292 258 204 183 186 172 149 144 150 168 170 168 163 160 161 176 170 158 146 149 146 134 115 114 124 123
300 304 306 307 307 311 320 325 325 327 323 329 335 327 318 312 303 293 292 266 198 173 183 153 146 154 164 169 169 168 165 163 168 177 159 142 134 132 124 117 118 120 113 96
291 295 300 305 306 310 314 319 317 320 318 326 335 335 326 312 299 308 317 291 150 173 172 156 157 160 168 168 171 171 167 161 158 158 156 146 138 133 127 130 136 136 126 114
289 291 296 298 298 299 306 313 313 313 321 329 335 339 330 320 304 292 285 242 173 176 168 161 163 167 171 169 170 169 163 153 150 156 155 148 142 138 138 146 158 155 128 121
285 285 289 295 296 298 303 305 305 312 322 325 329 330 321 310 301 295 274 209 182 177 171 168 168 171 167 165 169 169 167 166 167 170 170 163 157 156 164 167 160 141 128 123
Height
1504 1503 1500 1497 1491 1490 1500 1496 1492 1481 1479 1474 1470 1468 1465 1462 1462 1462 1463 1463 1463 1463 1462 1461 1463 1465 1468 1472 1475 1476 1476 1478 1481 1483 1484 1485 1486 1487 1488 1489 1490 1492 1493 1494
1500 1494 1494 1493 1487 1482 1484 1490 1489 1486 1481 1475 1473 1466 1462 1461 1461 1460 1460 1460 1460 1459 1458 1457 1458 1461 1464 1467 1470 1471 1472 1474 1476 1478 1480 1481 1483 1484 1485 1486 1488 1489 1490 1492
1501 1495 1496 1499 1503 1502 1493 1494 1495 1492 1486 1475 1466 1460 1456 1457 1458 1458 1458 1458 1458 1457 1456 1456 1459 1461 1463 1465 1469 1474 1474 1472 1472 1474 1475 1477 1478 1480 1482 1482 1483 1484 1486 1488
1499 1502 1506 1506 1506 1506 1500 1498 1495 1490 1484 1476 1468 1460 1459 1458 1457 1456 1456 1457 1456 1456 1456 1458 1460 1461 1461 1462 1464 1467 1472 1468 1469 1470 1472 1473 1473 1475 1477 1478 1479 1480 1482 1484
1502 1499 1492 1503 1515 1516 1505 1499 1498 1492 1484 1477 1466 1456 1458 1459 1457 1457 1457 1458 1458 1459 1460 1461 1461 1461 1462 1462 1462 1463 1464 1464 1465 1467 1467 1468 1468 1470 1471 1473 1474 1477 1479 1481
1508 1515 1511 1522 1516 1508 1498 1500 1499 1494 1487 1479 1471 1462 1464 1465 1463 1461 1460 1461 1462 1462 1462 1462 1462 1462 1463 1462 1462 1462 1462 1462 1462 1463 1463 1464 1464 1465 1466 1468 1470 1472 1473 1475
1522 1521 1520 1527 1519 1507 1509 1518 1507 1501 1495 1488 1482 1480 1474 1469 1468 1466 1465 1464 1465 1464 1464 1464 1465 1465 1465 1463 1462 1462 1462 1462 1461 1461 1460 1460 1460 1460 1461 1463 1465 1467 1467 1468
1526 1528 1536 1529 1528 1529 1528 1520 1511 1504 1498 1492 1485 1479 1475 1473 1471 1470 1468 1467 1467 1468 1467 1467 1468 1468 1467 1465 1464 1462 1461 1461 1461 1460 1459 1459 1458 1458 1459 1461 1462 1463 1464 1466
1530 1531 1531 1531 1531 1528 1525 1520 1512 1506 1499 1494 1487 1481 1477 1475 1474 1472 1470 1470 1470 1470 1471 1470 1470 1470 1469 1467 1465 1464 1463 1462 1461 1460 1459 1459 1459 1460 1461 1462 1464 1465 1465 1466
1532 1529 1527 1527 1526 1524 1521 1517 1511 1505 1499 1495 1489 1483 1478 1476 1474 1473 1471 1472 1471 1472 1474 1473 1471 1470 1470 1468 1467 1466 1465 1464 1462 1461 1461 1459 1459 1461 1463 1464 1465 1466 1466 1465
1526 1527 1526 1522 1523 1519 1512 1510 1507 1501 1497 1494 1489 1483 1478 1476 1474 1473 1472 1471 1471 1474 1476 1475 1473 1471 1470 1469 1468 1468 1467 1465 1464 1463 1462 1460 1460 1462 1464 1464 1464 1465 1464 1464
1533 1531 1529 1524 1520 1516 1511 1508 1502 1496 1491 1489 1486 1481 1477 1475 1474 1473 1472 1472 1473 1474 1475 1475 1474 1473 1471 1470 1469 1469 1468 1467 1466 1466 1465 1463 1463 1463 1464 1464 1464 1463 1463 1462
1531 1526 1523 1520 1516 1513 1509 1504 1497 1492 1489 1486 1483 1480 1477 1474 1473 1472 1472 1472 1473 1475 1475 1475 1474 1473 1472 1470 1469 1468 1468 1468 1467 1467 1467 1466 1465 1465 1465 1464 1464 1463 1462 1462
1529 1523 1517 1514 1512 1508 1503 1498 1492 1489 1487 1485 1482 1479 1476 1474 1472 1471 1472 1472 1473 1474 1475 1474 1474 1473 1472 1470 1469 1469 1468 1468 1468 1467 1466 1466 1466 1466 1466 1465 1464 1463 1462 1461
1526 1522 1517 1511 1507 1501 1498 1494 1490 1486 1484 1482 1480 1477 1475 1473 1472 1471 1471 1472 1473 1474 1474 1474 1473 1472 1471 1470 1469 1469 1469 1468 1467 1466 1465 1465 1466 1466 1465 1464 1463 1463 1462 1462
1521 1518 1514 1509 1504 1498 1492 1488 1485 1482 1480 1478 1477 1475 1473 1471 1470 1469 1469 1470 1471 1472 1473 1472 1472 1471 1469 1469 1469 1468 1468 1467 1467 1467 1467 1467 1467 1466 1465 1464 1464 1465 1464 1463
1518 1515 1511 1507 1503 1498 1493 1488 1485 1480 1479 1477 1474 1472 1470 1468 1468 1466 1466 1466 1468 1469 1470 1470 1469 1468 1467 1467 1467 1467 1467 1466 1466 1467 1468 1468 1468 1467 1466 1466 1467 1467 1467 1465
1516 1514 1511 1507 1502 1496 1492 1487 1482 1479 1477 1474 1471 1469 1468 1467 1466 1464 1462 1463 1464 1465 1465 1466 1466 1466 1465 1465 1465 1466 1466 1466 1467 1467 1467 1468 1469 1469 1468 1468 1468 1469 1468 1467
1513 1510 1507 1504 1499 1494 1490 1486 1481 1478 1473 1469 1467 1466 1465 1464 1463 1461 1459 1459 1459 1460 1462 1463 1463 1463 1463 1462 1462 1463 1464 1465 1465 1466 1467 1468 1468 1468 1469 1469 1469 1470 1469 1469
1510 1508 1504 1501 1496 1492 1488 1483 1478 1474 1469 1465 1464 1463 1462 1462 1461 1459 1457 1456 1456 1457 1458 1459 1460 1460 1460 1460 1461 1462 1463 1464 1464 1466 1466 1467 1468 1469 1468 1468 1469 1470 1471 1470
1506 1504 1501 1497 1493 1489 1485 1481 1477 1473 1467 1463 1460 1458 1457 1457 1456 1456 1454 1453 1453 1453 1455 1456 1457 1458 1458 1458 1459 1462 1463 1464 1464 1465 1466 1468 1468 1469 1469 1469 1470 1470 1471 1471
1501 1500 1497 1494 1490 1485 1481 1477 1473 1469 1464 1460 1456 1453 1452 1452 1452 1452 1452 1451 1450 1450 1452 1454 1455 1455 1456 1457 1459 1461 1462 1463 1464 1465 1467 1468 1469 1469 1470 1470 1471 1471 1471 1471
1496 1494 1493 1490 1487 1482 1478 1474 1468 1465 1461 1456 1451 1449 1448 1448 1448 1449 1449 1448 1446 1447 1449 1451 1452 1454 1455 1456 1458 1460 1461 1462 1464 1466 1468 1469 1469 1469 1470 1471 1471 1470 1470 1471
1491 1489 1487 1485 1483 1479 1475 1470 1465 1462 1458 1453 1449 1446 1445 1444 1445 1446 1445 1443 1443 1445 1447 1449 1450 1452 1454 1455 1457 1459 1460 1461 1463 1465 1467 1468 1469 1470 1471 1471 1470 1470 1470 1470
1485 1483 1481 1480 1478 1475 1471 1466 1462 1459 1455 1451 1447 1443 1442 1441 1442 1442 1442 1442 1441 1443 1444 1446 1448 1450 1452 1454 1456 1457 1459 1460 1461 1464 1466 1467 1468 1469 1470 1471 1471 1470 1470 1469
1480 1478 1476 1475 1473 1471 1467 1463 1458 1454 1450 1444 1442 1439 1438 1438 1438 1439 1439 1440 1440 1441 1442 1443 1446 1448 1450 1452 1454 1456 1457 1458 1461 1463 1465 1466 1467 1468 1469 1470 1470 1470 1469 1469
1474 1472 1470 1470 1469 1467 1464 1459 1455 1451 1448 1444 1437 1436 1436 1435 1434 1434 1435 1436 1437 1439 1440 1442 1444 1446 1448 1450 1452 1455 1456 1457 1460 1462 1464 1465 1466 1467 1468 1469 1469 1468 1468 1468